Stündliche Wetter Holodkovo

Heute, 21 Juni, Montag

Zeit Temperatur Niederschläge Wind Luftdruck Luftfeuchtigkeit
00:00 +19°C° 0 mm 3 m/S 746 mmHg 84%
01:00 +18°C° 0 mm 3 m/S 746 mmHg 84%
02:00 +18°C° 0 mm 3 m/S 746 mmHg 83%
03:00 +19°C° 0 mm 3 m/S 746 mmHg 83%
04:00 +19°C° 0 mm 3 m/S 746 mmHg 84%
05:00 +19°C° 0 mm 2 m/S 746 mmHg 85%
06:00 +21°C° 0 mm 3 m/S 746 mmHg 80%
07:00 +22°C° 0 mm 4 m/S 746 mmHg 75%
08:00 +25°C° 0 mm 4 m/S 746 mmHg 70%
09:00 +26°C° 0 mm 4 m/S 746 mmHg 67%
10:00 +27°C° 0 mm 5 m/S 746 mmHg 63%
11:00 +28°C° 0 mm 5 m/S 746 mmHg 60%
12:00 +28°C° 0 mm 5 m/S 746 mmHg 59%
13:00 +29°C° 0 mm 5 m/S 746 mmHg 59%
14:00 +29°C° 0 mm 4 m/S 746 mmHg 59%
15:00 +29°C° 0 mm 4 m/S 746 mmHg 63%
16:00 +29°C° 0 mm 4 m/S 746 mmHg 67%
17:00 +28°C° 0 mm 3 m/S 745 mmHg 70%
18:00 +27°C° 0 mm 3 m/S 746 mmHg 76%
19:00 +25°C° 0 mm 3 m/S 746 mmHg 82%
20:00 +22°C° 0 mm 3 m/S 746 mmHg 88%
21:00 +21°C° 0 mm 3 m/S 746 mmHg 89%
22:00 +21°C° 0 mm 3 m/S 746 mmHg 89%
23:00 +20°C° 0 mm 3 m/S 746 mmHg 90%

Morgen, 22 Juni, Dienstag

Zeit Temperatur Niederschläge Wind Luftdruck Luftfeuchtigkeit
00:00 +19°C° 0 mm 3 m/S 746 mmHg 90%
01:00 +19°C° 0 mm 3 m/S 746 mmHg 90%
02:00 +18°C° 0 mm 3 m/S 746 mmHg 90%
03:00 +19°C° 0 mm 3 m/S 746 mmHg 89%
04:00 +19°C° 0 mm 3 m/S 746 mmHg 89%
05:00 +20°C° 0 mm 3 m/S 746 mmHg 88%
06:00 +22°C° 0 mm 3 m/S 746 mmHg 82%
07:00 +23°C° 0 mm 4 m/S 746 mmHg 76%
08:00 +26°C° 0 mm 4 m/S 747 mmHg 70%
09:00 +27°C° 0 mm 4 m/S 747 mmHg 66%
10:00 +28°C° 0 mm 4 m/S 747 mmHg 62%
11:00 +29°C° 0 mm 5 m/S 747 mmHg 58%
12:00 +30°C° 0 mm 4 m/S 747 mmHg 58%
13:00 +30°C° 0 mm 4 m/S 747 mmHg 57%
14:00 +32°C° 0 mm 4 m/S 746 mmHg 56%
15:00 +30°C° 0 mm 4 m/S 746 mmHg 60%
16:00 +30°C° 0 mm 4 m/S 746 mmHg 64%
17:00 +29°C° 0 mm 4 m/S 746 mmHg 69%
18:00 +28°C° 0 mm 3 m/S 746 mmHg 73%
19:00 +26°C° 0 mm 3 m/S 746 mmHg 78%
20:00 +24°C° 0 mm 3 m/S 746 mmHg 83%
21:00 +24°C° 0 mm 3 m/S 746 mmHg 83%
22:00 +22°C° 0 mm 3 m/S 746 mmHg 83%
23:00 +21°C° 0 mm 3 m/S 746 mmHg 83%

übermorgen, 23 Juni, Mittwoch

Zeit Temperatur Niederschläge Wind Luftdruck Luftfeuchtigkeit
00:00 +21°C° 0 mm 3 m/S 746 mmHg 84%
01:00 +20°C° 0 mm 3 m/S 746 mmHg 85%
02:00 +20°C° 0 mm 3 m/S 746 mmHg 86%
03:00 +20°C° 0 mm 3 m/S 746 mmHg 86%
04:00 +21°C° 0 mm 2 m/S 747 mmHg 85%
05:00 +21°C° 0 mm 2 m/S 747 mmHg 85%
06:00 +24°C° 0 mm 3 m/S 747 mmHg 80%
07:00 +25°C° 0 mm 3 m/S 747 mmHg 75%
08:00 +27°C° 0 mm 3 m/S 747 mmHg 70%
09:00 +28°C° 0 mm 3 m/S 747 mmHg 65%
10:00 +29°C° 0 mm 3 m/S 747 mmHg 61%
11:00 +30°C° 0 mm 4 m/S 747 mmHg 56%
12:00 +32°C° 0 mm 4 m/S 747 mmHg 54%
13:00 +32°C° 0 mm 4 m/S 747 mmHg 53%
14:00 +32°C° 0 mm 4 m/S 747 mmHg 51%
15:00 +31°C° 0 mm 3 m/S 747 mmHg 56%
16:00 +31°C° 0 mm 3 m/S 747 mmHg 60%
17:00 +30°C° 0 mm 2 m/S 746 mmHg 65%
18:00 +28°C° 0 mm 2 m/S 746 mmHg 69%
19:00 +27°C° 0 mm 2 m/S 746 mmHg 74%
20:00 +25°C° 0 mm 2 m/S 746 mmHg 79%
21:00 +24°C° 0 mm 2 m/S 746 mmHg 80%
22:00 +24°C° 0 mm 2 m/S 746 mmHg 81%
23:00 +22°C° 0 mm 3 m/S 746 mmHg 82%

24 Juni, Donnerstag

Zeit Temperatur Niederschläge Wind Luftdruck Luftfeuchtigkeit
00:00 +22°C° 0 mm 3 m/S 746 mmHg 84%
01:00 +21°C° 0 mm 3 m/S 746 mmHg 86%
02:00 +21°C° 0 mm 3 m/S 746 mmHg 87%
03:00 +21°C° 0 mm 2 m/S 746 mmHg 87%
04:00 +23°C° 0 mm 2 m/S 746 mmHg 87%
05:00 +23°C° 0 mm 2 m/S 746 mmHg 87%
06:00 +25°C° 0 mm 2 m/S 746 mmHg 82%
07:00 +26°C° 0 mm 2 m/S 746 mmHg 77%
08:00 +28°C° 0 mm 2 m/S 747 mmHg 72%
09:00 +29°C° 0 mm 2 m/S 747 mmHg 68%
10:00 +30°C° 0 mm 2 m/S 747 mmHg 64%
11:00 +31°C° 0 mm 2 m/S 747 mmHg 60%
12:00 +32°C° 0 mm 2 m/S 746 mmHg 57%
13:00 +32°C° 0 mm 1 m/S 746 mmHg 55%
14:00 +33°C° 0 mm 1 m/S 746 mmHg 52%
15:00 +32°C° 0 mm 1 m/S 746 mmHg 55%
16:00 +32°C° 0 mm 1 m/S 746 mmHg 58%
17:00 +32°C° 0 mm 1 m/S 746 mmHg 62%
18:00 +30°C° 0 mm 1 m/S 746 mmHg 66%
19:00 +28°C° 0 mm 2 m/S 745 mmHg 71%
20:00 +26°C° 0 mm 2 m/S 745 mmHg 75%
21:00 +26°C° 0.2 mm 2 m/S 745 mmHg 78%
22:00 +25°C° 0.2 mm 2 m/S 745 mmHg 81%
23:00 +24°C° 0.2 mm 1 m/S 745 mmHg 84%

25 Juni, Freitag

Zeit Temperatur Niederschläge Wind Luftdruck Luftfeuchtigkeit
00:00 +23°C° 0.7 mm 1 m/S 745 mmHg 85%
01:00 +23°C° 0.7 mm 1 m/S 745 mmHg 87%
02:00 +22°C° 0.7 mm 1 m/S 745 mmHg 89%
03:00 +23°C° 0 mm 1 m/S 745 mmHg 88%
04:00 +24°C° 0 mm 1 m/S 745 mmHg 86%
05:00 +24°C° 0 mm 1 m/S 745 mmHg 85%
06:00 +26°C° 0 mm 1 m/S 745 mmHg 80%
07:00 +27°C° 0 mm 1 m/S 745 mmHg 76%
08:00 +28°C° 0 mm 1 m/S 745 mmHg 71%
09:00 +29°C° 0 mm 2 m/S 745 mmHg 67%
10:00 +30°C° 0 mm 2 m/S 745 mmHg 62%
11:00 +31°C° 0 mm 2 m/S 745 mmHg 58%
12:00 +32°C° 0 mm 1 m/S 745 mmHg 56%
13:00 +32°C° 0 mm 1 m/S 745 mmHg 54%
14:00 +32°C° 0 mm 1 m/S 744 mmHg 52%
15:00 +32°C° 0 mm 1 m/S 744 mmHg 54%
16:00 +32°C° 0 mm 1 m/S 744 mmHg 57%
17:00 +32°C° 0 mm 1 m/S 743 mmHg 60%
18:00 +28°C° 1.7 mm 3 m/S 743 mmHg 70%
19:00 +25°C° 1.7 mm 4 m/S 744 mmHg 81%
20:00 +20°C° 1.7 mm 5 m/S 744 mmHg 91%
21:00 +20°C° 0.8 mm 4 m/S 743 mmHg 89%
22:00 +21°C° 0.8 mm 3 m/S 743 mmHg 86%
23:00 +21°C° 0.8 mm 2 m/S 742 mmHg 84%

26 Juni, Samstag

Zeit Temperatur Niederschläge Wind Luftdruck Luftfeuchtigkeit
00:00 +21°C° 0.3 mm 2 m/S 742 mmHg 85%
01:00 +20°C° 0.3 mm 2 m/S 743 mmHg 86%
02:00 +20°C° 0.3 mm 2 m/S 743 mmHg 88%
03:00 +21°C° 0 mm 2 m/S 743 mmHg 88%
04:00 +22°C° 0 mm 1 m/S 742 mmHg 88%
05:00 +22°C° 0 mm 1 m/S 742 mmHg 88%
06:00 +24°C° 0 mm 1 m/S 742 mmHg 83%
07:00 +26°C° 0 mm 1 m/S 742 mmHg 79%
08:00 +27°C° 0 mm 1 m/S 742 mmHg 74%
09:00 +28°C° 0.1 mm 1 m/S 742 mmHg 70%
10:00 +29°C° 0.1 mm 1 m/S 742 mmHg 66%
11:00 +30°C° 0.1 mm 1 m/S 742 mmHg 62%
12:00 +31°C° 0 mm 1 m/S 742 mmHg 60%
13:00 +31°C° 0 mm 1 m/S 742 mmHg 58%
14:00 +32°C° 0 mm 1 m/S 741 mmHg 56%
15:00 +31°C° 0 mm 1 m/S 741 mmHg 59%
16:00 +31°C° 0 mm 1 m/S 740 mmHg 62%
17:00 +31°C° 0 mm 1 m/S 740 mmHg 66%
18:00 +29°C° 0 mm 2 m/S 740 mmHg 70%
19:00 +27°C° 0 mm 2 m/S 740 mmHg 74%
20:00 +26°C° 0 mm 2 m/S 740 mmHg 77%
21:00 +25°C° 0 mm 2 m/S 739 mmHg 79%
22:00 +24°C° 0 mm 2 m/S 739 mmHg 81%
23:00 +23°C° 0 mm 2 m/S 739 mmHg 83%
Mehr zeigen

Wir brauchen deine Erlaubnis

Meteoprog und unser Service Anbieter werden persönliche Daten aufbewahren, so wie Cookies, Geräte Bezeichnung oder ähnliche Technologien von deinem Gerät und Prozess, so wie Persönliche Daten Inhalte und Werbungen, genauso wie social Media und den Verkehr zu analysieren.

  • Aufbewahrung und/oder Zugang zu deiner Geräte Informationen.

    Cookies, Geräte Bezeichnung oder andere Informationen, können aufbewahrt oder Zugang zu deinem Gerät erhalten, für den Grund, der oben angegeben wird.

  • Personalisierte Werbung und Inhalte, Messungen, Einblick in das Publikum und Produkt Entwicklung.

    Werbungen und Inhalte können personalisiert werden, basierend auf ein Profil. Mehr Daten können besser personalisierte Werbungen und Inhalte hinzufügen. Werbung und Inhalte können gezeigt und gemessen werden. Einblicke über das Publikum, welche die Werbung gesehen haben und den Inhalt, können abgeleitet werden. So wie Daten können genutzt werden, um es zu verbessern oder die Benutzer Erfahrung zu verbessern das System und die Software.

Wenn du “Ich stimme zu” klickst, erlaubst du uns, die Cookies zu benutzen die Geräte Bezeichnung, den Web oder ähnliche Technologien zu benutzen. Deine Settings, können in deinem Gerät bei deinem Browser geändert werden.

Für den bestimmten Zweck, berechtigten Interessen beruhen darauf, mehr als auf den Inhalt. Du kannst mehr darüber in unseren Privaten und Cookie Politik lesen.